Tracking 18793 objects as of 23-September-2017
HD Live streaming from Space Station
objects crossing your sky now

NOAA 2 (ITOS-D)

Track NOAA 2 (ITOS-D) now!
10-day predictions
NOAA 2 (ITOS-D) is classified as:


NORAD ID: 6235
Int'l Code: 1972-082A
Perigee: 1,455.6 km
Apogee: 1,461.8 km
Inclination: 101.7 °
Period: 114.9 minutes
Semi major axis: 7829 km
RCS: 2.925 m2 (large)
Launch date: October 15, 1972
Source: United States (US)
Launch site: AIR FORCE WESTERN TEST RANGE (AFWTR)
aabbcc
Your satellite tracking list
Your tracking list is empty





NASA's NSSDC Master Catalog

Two Line Element Set (TLE):
1 06235U 72082A   17265.49456399 -.00000032  00000-0  80948-4 0  9994
2 06235 101.6936 229.0438 0003904 152.6811 321.3066 12.53097849 55630
Source of the keplerian elements: AFSPC